Total_Precipitation_Accumulation
0.06 0.05 0.05 0.05 0.06 0.07 0.07 0.07 0.08 0.10 0.10 0.12 0.14 0.14 0.12 0.11 0.09 0.08 0.06 0.04 0.04 0.03 0.03 0.03 0.02 0.02 0.01 0.01 0.00 0.00 0.00 0.00 0.00 0.00 0.00 0.00 0.00 0.00 0.00 0.00 0.00 0.01 0.01
0.05 0.05 0.05 0.07 0.07 0.07 0.07 0.08 0.09 0.09 0.09 0.10 0.11 0.10 0.09 0.07 0.07 0.06 0.06 0.06 0.05 0.05 0.05 0.05 0.04 0.02 0.01 0.01 0.00 0.00 0.00 0.00 0.00 0.01 0.00 0.00 0.00 0.00 0.00 0.00 0.00 0.00 0.00
0.06 0.06 0.06 0.08 0.09 0.09 0.09 0.09 0.09 0.09 0.08 0.08 0.06 0.06 0.05 0.05 0.05 0.05 0.06 0.06 0.06 0.06 0.06 0.05 0.03 0.02 0.01 0.01 0.00 0.00 0.00 0.00 0.01 0.01 0.00 0.00 0.00 0.01 0.01 0.00 0.00 0.00 0.00
0.10 0.10 0.10 0.12 0.13 0.13 0.12 0.10 0.10 0.08 0.07 0.06 0.04 0.03 0.03 0.03 0.04 0.04 0.05 0.05 0.05 0.04 0.03 0.03 0.02 0.02 0.01 0.01 0.01 0.01 0.01 0.01 0.01 0.02 0.04 0.03 0.02 0.01 0.00 0.00 0.00 0.00 0.00
0.17 0.16 0.14 0.14 0.15 0.15 0.13 0.10 0.08 0.06 0.04 0.03 0.03 0.03 0.02 0.03 0.03 0.04 0.04 0.04 0.04 0.04 0.04 0.04 0.04 0.03 0.02 0.01 0.01 0.01 0.01 0.03 0.06 0.10 0.08 0.05 0.02 0.00 0.00 0.00 0.01 0.01 0.00
0.26 0.21 0.17 0.16 0.15 0.14 0.12 0.10 0.08 0.06 0.05 0.05 0.05 0.05 0.05 0.05 0.08 0.07 0.06 0.06 0.07 0.07 0.07 0.05 0.03 0.02 0.01 0.01 0.01 0.02 0.05 0.11 0.14 0.13 0.09 0.04 0.01 0.00 0.01 0.02 0.04 0.05 0.03
0.33 0.30 0.23 0.22 0.20 0.16 0.14 0.15 0.16 0.15 0.14 0.13 0.12 0.12 0.12 0.15 0.17 0.15 0.13 0.10 0.09 0.06 0.04 0.02 0.01 0.01 0.00 0.00 0.00 0.04 0.08 0.08 0.08 0.06 0.03 0.01 0.01 0.02 0.05 0.08 0.07 0.08 0.05
0.38 0.37 0.36 0.36 0.36 0.37 0.36 0.36 0.35 0.32 0.29 0.28 0.27 0.26 0.25 0.24 0.21 0.16 0.11 0.08 0.06 0.03 0.02 0.01 0.00 0.00 0.00 0.02 0.06 0.10 0.05 0.02 0.01 0.01 0.01 0.01 0.02 0.03 0.06 0.10 0.10 0.07 0.02
0.56 0.55 0.56 0.58 0.61 0.64 0.65 0.61 0.57 0.53 0.48 0.42 0.36 0.29 0.24 0.20 0.14 0.09 0.06 0.04 0.02 0.01 0.00 0.00 0.00 0.01 0.02 0.07 0.08 0.05 0.02 0.00 0.00 0.01 0.02 0.02 0.02 0.02 0.02 0.05 0.07 0.09 0.05
0.67 0.69 0.72 0.74 0.76 0.71 0.69 0.63 0.52 0.43 0.36 0.32 0.27 0.22 0.15 0.10 0.06 0.03 0.02 0.01 0.00 0.00 0.00 0.00 0.00 0.01 0.04 0.07 0.05 0.03 0.01 0.00 0.01 0.01 0.00 0.00 0.00 0.00 0.00 0.02 0.09 0.23 0.18
0.66 0.66 0.66 0.61 0.56 0.49 0.44 0.39 0.31 0.24 0.18 0.13 0.10 0.07 0.04 0.03 0.01 0.00 0.00 0.00 0.00 0.01 0.00 0.00 0.00 0.02 0.05 0.06 0.04 0.01 0.01 0.04 0.03 0.01 0.00 0.00 0.00 0.00 0.00 0.00 0.03 0.23 0.35
0.47 0.44 0.40 0.33 0.26 0.20 0.16 0.13 0.10 0.07 0.05 0.04 0.02 0.01 0.01 0.00 0.00 0.00 0.00 0.01 0.01 0.01 0.01 0.00 0.01 0.03 0.04 0.03 0.01 0.01 0.02 0.02 0.00 0.00 0.00 0.00 0.00 0.00 0.00 0.00 0.01 0.03 0.13
0.15 0.13 0.11 0.08 0.06 0.04 0.02 0.01 0.01 0.00 0.00 0.00 0.00 0.00 0.00 0.00 0.00 0.00 0.00 0.01 0.02 0.02 0.01 0.02 0.02 0.02 0.01 0.00 0.00 0.00 0.00 0.00 0.00 0.01 0.01 0.00 0.00 0.00 0.00 0.00 0.01 0.00 0.01
0.01 0.01 0.01 0.00 0.00 0.00 0.00 0.00 0.00 0.00 0.00 0.00 0.00 0.00 0.00 0.00 0.00 0.00 0.00 0.01 0.01 0.01 0.01 0.01 0.01 0.00 0.00 0.00 0.00 0.00 0.00 0.00 0.01 0.03 0.02 0.01 0.00 0.00 0.00 0.01 0.02 0.03 0.04
0.00 0.00 0.00 0.00 0.00 0.00 0.00 0.00 0.00 0.00 0.00 0.00 0.00 0.00 0.00 0.00 0.00 0.01 0.02 0.02 0.02 0.02 0.02 0.00 0.00 0.00 0.00 0.00 0.00 0.00 0.00 0.00 0.00 0.01 0.02 0.03 0.01 0.01 0.00 0.01 0.03 0.06 0.07
0.00 0.00 0.00 0.00 0.00 0.00 0.00 0.00 0.00 0.00 0.00 0.00 0.00 0.00 0.00 0.00 0.00 0.01 0.02 0.02 0.02 0.02 0.01 0.00 0.00 0.00 0.00 0.00 0.00 0.00 0.00 0.01 0.01 0.03 0.04 0.05 0.06 0.05 0.03 0.01 0.03 0.06 0.07
0.00 0.00 0.00 0.00 0.00 0.00 0.00 0.00 0.00 0.00 0.00 0.00 0.00 0.00 0.00 0.00 0.00 0.01 0.01 0.01 0.00 0.00 0.00 0.00 0.00 0.00 0.00 0.00 0.01 0.02 0.02 0.01 0.02 0.04 0.06 0.08 0.11 0.08 0.05 0.04 0.04 0.05 0.05
0.00 0.00 0.00 0.00 0.00 0.00 0.00 0.00 0.00 0.00 0.00 0.00 0.00 0.00 0.00 0.00 0.00 0.01 0.00 0.00 0.00 0.00 0.00 0.00 0.00 0.00 0.01 0.01 0.02 0.03 0.03 0.02 0.02 0.04 0.06 0.09 0.12 0.12 0.09 0.07 0.07 0.08 0.10
0.00 0.00 0.00 0.00 0.00 0.00 0.00 0.00 0.00 0.00 0.00 0.00 0.00 0.00 0.00 0.00 0.00 0.00 0.00 0.00 0.00 0.00 0.00 0.00 0.00 0.01 0.02 0.03 0.03 0.04 0.04 0.05 0.05 0.07 0.09 0.11 0.14 0.17 0.12 0.08 0.08 0.07 0.08
0.00 0.00 0.00 0.00 0.00 0.00 0.00 0.00 0.00 0.00 0.00 0.00 0.00 0.00 0.00 0.00 0.00 0.00 0.00 0.00 0.00 0.00 0.00 0.00 0.00 0.01 0.02 0.04 0.04 0.05 0.05 0.04 0.06 0.08 0.09 0.11 0.13 0.17 0.17 0.13 0.10 0.11 0.10
0.00 0.00 0.00 0.00 0.00 0.00 0.00 0.00 0.00 0.00 0.00 0.00 0.00 0.00 0.00 0.00 0.00 0.00 0.00 0.00 0.00 0.00 0.00 0.01 0.01 0.02 0.03 0.05 0.05 0.05 0.04 0.05 0.07 0.11 0.12 0.12 0.14 0.15 0.12 0.11 0.12 0.16 0.18
0.00 0.00 0.00 0.00 0.00 0.00 0.00 0.00 0.00 0.00 0.00 0.00 0.00 0.00 0.00 0.00 0.00 0.00 0.00 0.00 0.00 0.00 0.01 0.02 0.02 0.03 0.07 0.11 0.13 0.11 0.06 0.04 0.07 0.11 0.11 0.09 0.10 0.10 0.12 0.16 0.21 0.23 0.19
0.00 0.00 0.00 0.00 0.00 0.00 0.00 0.00 0.00 0.00 0.00 0.00 0.00 0.00 0.00 0.00 0.00 0.00 0.00 0.00 0.00 0.00 0.00 0.02 0.03 0.03 0.05 0.11 0.15 0.22 0.22 0.16 0.13 0.13 0.18 0.21 0.23 0.26 0.29 0.30 0.26 0.19 0.11
0.00 0.00 0.00 0.00 0.00 0.00 0.00 0.00 0.00 0.00 0.00 0.00 0.00 0.00 0.00 0.00 0.00 0.00 0.00 0.00 0.00 0.00 0.01 0.02 0.04 0.05 0.06 0.10 0.13 0.16 0.22 0.27 0.35 0.42 0.52 0.60 0.50 0.36 0.29 0.23 0.17 0.12 0.08
0.00 0.00 0.00 0.00 0.00 0.00 0.00 0.00 0.00 0.00 0.00 0.00 0.00 0.00 0.00 0.00 0.00 0.00 0.00 0.00 0.00 0.00 0.01 0.02 0.05 0.07 0.08 0.10 0.12 0.14 0.15 0.22 0.36 0.45 0.37 0.31 0.25 0.20 0.19 0.16 0.12 0.09 0.06
0.00 0.00 0.00 0.00 0.00 0.00 0.00 0.00 0.00 0.00 0.00 0.00 0.00 0.00 0.00 0.00 0.00 0.00 0.00 0.00 0.01 0.01 0.01 0.01 0.03 0.08 0.10 0.10 0.07 0.08 0.13 0.18 0.17 0.14 0.10 0.11 0.14 0.13 0.13 0.11 0.08 0.07 0.05